• In Moldova, Republic
  • List of Countries
  • For 7 days
  • Water Temperature
  • Satellite Maps
  • Weather Map
  • Weather Widgets
  • user-avatar
    Login

    Hourly Weather Baku

    Today, 30 March, Thursday

    Time Temperature Precipitation Wind Pressure Humidity
    00:00 +7°C° 0 mm 2 mps 768 mmHg 79%
    01:00 +7°C° 0 mm 2 mps 768 mmHg 79%
    02:00 +7°C° 0 mm 3 mps 768 mmHg 79%
    03:00 +7°C° 0 mm 3 mps 768 mmHg 77%
    04:00 +6°C° 0 mm 4 mps 768 mmHg 77%
    05:00 +6°C° 0 mm 4 mps 768 mmHg 78%
    06:00 +7°C° 0 mm 5 mps 768 mmHg 78%
    07:00 +8°C° 0 mm 6 mps 768 mmHg 73%
    08:00 +9°C° 0 mm 7 mps 767 mmHg 68%
    09:00 +10°C° 0 mm 8 mps 767 mmHg 63%
    10:00 +11°C° 0 mm 8 mps 767 mmHg 60%
    11:00 +12°C° 0 mm 8 mps 766 mmHg 58%
    12:00 +13°C° 0 mm 9 mps 765 mmHg 55%
    13:00 +13°C° 0 mm 9 mps 764 mmHg 54%
    14:00 +13°C° 0 mm 9 mps 764 mmHg 54%
    15:00 +13°C° 0 mm 9 mps 763 mmHg 53%
    16:00 +12°C° 0 mm 9 mps 762 mmHg 56%
    17:00 +12°C° 0 mm 8 mps 762 mmHg 59%
    18:00 +11°C° 0 mm 8 mps 761 mmHg 62%
    19:00 +11°C° 0 mm 8 mps 761 mmHg 63%
    20:00 +10°C° 0 mm 8 mps 761 mmHg 65%
    21:00 +10°C° 0 mm 8 mps 761 mmHg 66%
    22:00 +10°C° 0 mm 7 mps 761 mmHg 67%
    23:00 +10°C° 0 mm 6 mps 761 mmHg 67%

    Tomorrow, 31 March, Friday

    Time Temperature Precipitation Wind Pressure Humidity
    00:00 +10°C° 0 mm 6 mps 761 mmHg 68%
    01:00 +9°C° 0 mm 5 mps 761 mmHg 64%
    02:00 +9°C° 0 mm 5 mps 761 mmHg 60%
    03:00 +10°C° 0 mm 4 mps 761 mmHg 56%
    04:00 +10°C° 0 mm 6 mps 761 mmHg 56%
    05:00 +10°C° 0 mm 7 mps 762 mmHg 56%
    06:00 +10°C° 0 mm 8 mps 762 mmHg 55%
    07:00 +11°C° 0 mm 10 mps 763 mmHg 58%
    08:00 +12°C° 0 mm 12 mps 764 mmHg 61%
    09:00 +12°C° 0 mm 14 mps 765 mmHg 64%
    10:00 +12°C° 0 mm 14 mps 765 mmHg 65%
    11:00 +10°C° 0 mm 15 mps 766 mmHg 66%
    12:00 +9°C° 0 mm 16 mps 767 mmHg 67%
    13:00 +7°C° 0 mm 16 mps 767 mmHg 67%
    14:00 +7°C° 0 mm 16 mps 768 mmHg 66%
    15:00 +6°C° 0 mm 16 mps 768 mmHg 65%
    16:00 +5°C° 0 mm 15 mps 768 mmHg 68%
    17:00 +4°C° 0 mm 15 mps 769 mmHg 70%
    18:00 +2°C° 0 mm 15 mps 770 mmHg 72%
    19:00 +3°C° 0 mm 14 mps 770 mmHg 72%
    20:00 +3°C° 0 mm 13 mps 770 mmHg 72%
    21:00 +1°C° 0 mm 13 mps 771 mmHg 72%
    22:00 +2°C° 0.2 mm 12 mps 771 mmHg 72%
    23:00 +2°C° 0.2 mm 11 mps 771 mmHg 72%

    Day after tomorrow, 1 April, Saturday

    Time Temperature Precipitation Wind Pressure Humidity
    00:00 +2°C° 0.2 mm 10 mps 771 mmHg 71%
    01:00 +2°C° 0.3 mm 9 mps 770 mmHg 71%
    02:00 +2°C° 0.3 mm 9 mps 770 mmHg 71%
    03:00 +4°C° 0.3 mm 8 mps 769 mmHg 71%
    04:00 +4°C° 0.1 mm 7 mps 769 mmHg 70%
    05:00 +4°C° 0.1 mm 6 mps 769 mmHg 70%
    06:00 +4°C° 0.1 mm 6 mps 769 mmHg 69%
    07:00 +5°C° 0.3 mm 5 mps 769 mmHg 67%
    08:00 +6°C° 0.3 mm 4 mps 769 mmHg 66%
    09:00 +7°C° 0.3 mm 3 mps 769 mmHg 64%
    10:00 +7°C° 0.2 mm 3 mps 768 mmHg 64%
    11:00 +8°C° 0.2 mm 3 mps 768 mmHg 63%
    12:00 +8°C° 0.2 mm 3 mps 767 mmHg 63%
    13:00 +8°C° 0 mm 3 mps 767 mmHg 63%
    14:00 +8°C° 0 mm 4 mps 766 mmHg 63%
    15:00 +8°C° 0 mm 4 mps 766 mmHg 63%
    16:00 +8°C° 0 mm 4 mps 766 mmHg 68%
    17:00 +7°C° 0 mm 4 mps 766 mmHg 72%
    18:00 +7°C° 0 mm 4 mps 766 mmHg 77%
    19:00 +7°C° 0.1 mm 3 mps 766 mmHg 79%
    20:00 +7°C° 0.1 mm 3 mps 767 mmHg 81%
    21:00 +7°C° 0.1 mm 2 mps 767 mmHg 83%
    22:00 +7°C° 0 mm 2 mps 767 mmHg 84%
    23:00 +6°C° 0 mm 2 mps 767 mmHg 86%

    2 April, Sunday

    Time Temperature Precipitation Wind Pressure Humidity
    00:00 +6°C° 0 mm 2 mps 767 mmHg 88%
    01:00 +6°C° 0 mm 2 mps 766 mmHg 88%
    02:00 +5°C° 0 mm 3 mps 766 mmHg 88%
    03:00 +5°C° 0 mm 3 mps 766 mmHg 88%
    04:00 +5°C° 0 mm 4 mps 767 mmHg 87%
    05:00 +5°C° 0 mm 5 mps 767 mmHg 87%
    06:00 +6°C° 0 mm 5 mps 768 mmHg 86%
    07:00 +5°C° 0 mm 6 mps 768 mmHg 81%
    08:00 +7°C° 0 mm 6 mps 769 mmHg 77%
    09:00 +6°C° 0 mm 7 mps 769 mmHg 72%
    10:00 +8°C° 0 mm 7 mps 770 mmHg 69%
    11:00 +9°C° 0 mm 7 mps 770 mmHg 66%
    12:00 +9°C° 0 mm 7 mps 770 mmHg 62%
    13:00 +9°C° 0 mm 7 mps 770 mmHg 64%
    14:00 +9°C° 0 mm 7 mps 770 mmHg 65%
    15:00 +8°C° 0 mm 7 mps 770 mmHg 66%
    16:00 +8°C° 0 mm 7 mps 770 mmHg 67%
    17:00 +7°C° 0 mm 6 mps 770 mmHg 68%
    18:00 +7°C° 0 mm 6 mps 770 mmHg 70%
    19:00 +7°C° 0 mm 6 mps 770 mmHg 70%
    20:00 +6°C° 0 mm 5 mps 770 mmHg 70%
    21:00 +6°C° 0 mm 5 mps 771 mmHg 70%
    22:00 +6°C° 0 mm 5 mps 770 mmHg 71%
    23:00 +6°C° 0 mm 4 mps 770 mmHg 72%

    3 April, Monday

    Time Temperature Precipitation Wind Pressure Humidity
    00:00 +6°C° 0 mm 4 mps 770 mmHg 73%
    01:00 +5°C° 0 mm 3 mps 769 mmHg 75%
    02:00 +5°C° 0 mm 3 mps 769 mmHg 77%
    03:00 +6°C° 0 mm 2 mps 769 mmHg 78%
    04:00 +6°C° 0 mm 2 mps 769 mmHg 78%
    05:00 +6°C° 0 mm 2 mps 769 mmHg 78%
    06:00 +7°C° 0 mm 1 mps 769 mmHg 77%
    07:00 +8°C° 0 mm 1 mps 769 mmHg 71%
    08:00 +9°C° 0 mm 2 mps 769 mmHg 64%
    09:00 +10°C° 0 mm 2 mps 769 mmHg 57%
    10:00 +12°C° 0 mm 2 mps 769 mmHg 54%
    11:00 +13°C° 0 mm 2 mps 768 mmHg 51%
    12:00 +13°C° 0 mm 3 mps 768 mmHg 48%
    13:00 +13°C° 0 mm 3 mps 768 mmHg 47%
    14:00 +13°C° 0 mm 4 mps 768 mmHg 46%
    15:00 +13°C° 0 mm 4 mps 767 mmHg 45%
    16:00 +12°C° 0 mm 4 mps 767 mmHg 48%
    17:00 +11°C° 0 mm 4 mps 767 mmHg 50%
    18:00 +10°C° 0 mm 4 mps 767 mmHg 52%
    19:00 +10°C° 0 mm 4 mps 767 mmHg 56%
    20:00 +9°C° 0 mm 3 mps 767 mmHg 60%
    21:00 +9°C° 0 mm 3 mps 768 mmHg 64%
    22:00 +8°C° 0 mm 3 mps 767 mmHg 67%
    23:00 +8°C° 0 mm 3 mps 767 mmHg 69%

    4 April, Tuesday

    Time Temperature Precipitation Wind Pressure Humidity
    00:00 +8°C° 0 mm 3 mps 767 mmHg 72%
    01:00 +7°C° 0 mm 4 mps 766 mmHg 73%
    02:00 +7°C° 0 mm 4 mps 766 mmHg 75%
    03:00 +7°C° 0 mm 4 mps 766 mmHg 77%
    04:00 +7°C° 0 mm 4 mps 766 mmHg 77%
    05:00 +7°C° 0 mm 5 mps 766 mmHg 78%
    06:00 +7°C° 0 mm 5 mps 766 mmHg 78%
    07:00 +8°C° 0 mm 6 mps 766 mmHg 72%
    08:00 +10°C° 0 mm 6 mps 766 mmHg 66%
    09:00 +11°C° 0 mm 7 mps 766 mmHg 60%
    10:00 +12°C° 0 mm 7 mps 766 mmHg 56%
    11:00 +15°C° 0 mm 7 mps 765 mmHg 52%
    12:00 +16°C° 0 mm 7 mps 765 mmHg 48%
    13:00 +16°C° 0 mm 7 mps 765 mmHg 48%
    14:00 +16°C° 0 mm 7 mps 764 mmHg 47%
    15:00 +16°C° 0 mm 7 mps 764 mmHg 47%
    16:00 +15°C° 0 mm 6 mps 764 mmHg 51%
    17:00 +14°C° 0 mm 6 mps 764 mmHg 56%
    18:00 +13°C° 0 mm 6 mps 764 mmHg 61%
    19:00 +12°C° 0 mm 5 mps 764 mmHg 63%
    20:00 +11°C° 0 mm 4 mps 765 mmHg 65%
    21:00 +11°C° 0 mm 3 mps 765 mmHg 68%
    22:00 +10°C° 0 mm 3 mps 765 mmHg 65%
    23:00 +10°C° 0 mm 3 mps 765 mmHg 63%
    Show more